Time,TemperatureF,DewpointF,PressureIn,WindDirection,WindDirectionDegrees,WindSpeedMPH,WindSpeedGustMPH,Humidity,HourlyPrecipIn,Conditions,Clouds,dailyrainin,SoftwareType,DateUTC
2013-02-16 00:02:00,37.0,35.0,29.97,SSW,198,0.0,0.0,94,0.00,,,0.00,,2013-02-16 05:02:00,
2013-02-16 00:12:00,37.0,35.0,29.97,SSW,198,0.0,0.0,94,0.00,,,0.00,,2013-02-16 05:12:00,
2013-02-16 00:22:00,37.0,35.0,29.97,SSW,198,0.0,1.0,94,0.00,,,0.00,,2013-02-16 05:22:00,
2013-02-16 00:32:00,37.0,35.0,29.97,SSW,198,0.0,0.0,94,0.00,,,0.00,,2013-02-16 05:32:00,
2013-02-16 00:42:00,37.0,35.0,29.97,SSW,198,0.0,0.0,94,0.00,,,0.00,,2013-02-16 05:42:00,
2013-02-16 00:52:00,37.0,36.0,29.96,SSW,199,0.0,1.0,95,0.00,,,0.00,,2013-02-16 05:52:00,
2013-02-16 01:02:00,37.0,36.0,29.96,SSW,198,0.0,1.0,95,0.00,,,0.00,,2013-02-16 06:02:00,
2013-02-16 01:11:00,37.0,36.0,29.96,SSW,198,0.0,1.0,95,0.00,,,0.00,,2013-02-16 06:11:00,
2013-02-16 01:21:00,37.0,36.0,29.96,SSW,198,0.0,1.0,95,0.00,,,0.00,,2013-02-16 06:21:00,
2013-02-16 01:32:00,37.0,36.0,29.96,SSW,198,0.0,1.0,95,0.00,,,0.00,,2013-02-16 06:32:00,
2013-02-16 01:42:00,37.0,36.0,29.96,SSW,198,0.0,1.0,95,0.00,,,0.00,,2013-02-16 06:42:00,
2013-02-16 01:52:00,37.0,36.0,29.96,SSW,200,0.0,1.0,95,0.00,,,0.00,,2013-02-16 06:52:00,
2013-02-16 02:02:00,38.0,37.0,29.96,SSW,198,0.0,0.0,95,0.00,,,0.00,,2013-02-16 07:02:00,
2013-02-16 02:11:00,38.0,37.0,29.96,SSW,198,0.0,0.0,95,0.00,,,0.00,,2013-02-16 07:11:00,
2013-02-16 02:21:00,38.0,37.0,29.96,SSW,198,0.0,0.0,95,0.00,,,0.00,,2013-02-16 07:21:00,
2013-02-16 02:32:00,38.0,37.0,29.96,SSW,198,0.0,0.0,95,0.00,,,0.00,,2013-02-16 07:32:00,
2013-02-16 02:42:00,38.0,37.0,29.96,SSW,198,0.0,0.0,95,0.00,,,0.00,,2013-02-16 07:42:00,
2013-02-16 05:01:00,37.0,36.0,29.92,ENE,68,0.0,1.0,96,0.00,,,0.00,,2013-02-16 10:01:00,
2013-02-16 05:11:00,37.0,36.0,29.92,ENE,68,0.0,1.0,96,0.00,,,0.00,,2013-02-16 10:11:00,
2013-02-16 05:21:00,37.0,36.0,29.91,ENE,68,0.0,1.0,96,0.00,,,0.00,,2013-02-16 10:21:00,
2013-02-16 05:32:00,37.0,36.0,29.92,ENE,68,0.0,1.0,96,0.00,,,0.00,,2013-02-16 10:32:00,
2013-02-16 05:42:00,37.0,36.0,29.92,ENE,68,0.0,1.0,96,0.00,,,0.00,,2013-02-16 10:42:00,
2013-02-16 05:52:00,37.0,36.0,29.92,ENE,68,0.0,0.0,96,0.00,,,0.00,,2013-02-16 10:52:00,
2013-02-16 06:02:00,37.0,36.0,29.92,ENE,68,0.0,0.0,96,0.00,,,0.00,,2013-02-16 11:02:00,
2013-02-16 06:11:00,37.0,36.0,29.92,ENE,68,0.0,0.0,96,0.00,,,0.00,,2013-02-16 11:11:00,
2013-02-16 06:22:00,37.0,36.0,29.93,ENE,68,0.0,1.0,96,0.00,,,0.00,,2013-02-16 11:22:00,
2013-02-16 06:32:00,37.0,36.0,29.93,ENE,68,0.0,0.0,96,0.00,,,0.00,,2013-02-16 11:32:00,
2013-02-16 06:42:00,37.0,36.0,29.93,ENE,68,0.0,0.0,96,0.00,,,0.00,,2013-02-16 11:42:00,
2013-02-16 06:52:00,37.0,36.0,29.93,ENE,68,0.0,1.0,96,0.00,,,0.00,,2013-02-16 11:52:00,
2013-02-16 07:02:00,38.0,37.0,29.93,ENE,60,1.0,1.0,97,0.00,,,0.00,,2013-02-16 12:02:00,
2013-02-16 07:12:00,38.0,37.0,29.93,ENE,60,1.0,1.0,97,0.00,,,0.00,,2013-02-16 12:12:00,
2013-02-16 07:22:00,40.0,38.0,29.93,ENE,65,0.0,2.0,91,0.00,,,0.00,,2013-02-16 12:22:00,
2013-02-16 07:32:00,41.0,37.0,29.93,NE,46,1.0,3.0,87,0.00,,,0.00,,2013-02-16 12:32:00,
2013-02-16 07:42:00,41.0,37.0,29.93,NE,46,1.0,3.0,87,0.00,,,0.00,,2013-02-16 12:42:00,
2013-02-16 07:52:00,41.0,37.0,29.93,North,11,2.0,3.0,85,0.00,,,0.00,,2013-02-16 12:52:00,
2013-02-16 08:02:00,42.0,38.0,29.93,NNW,342,2.0,4.0,84,0.00,,,0.00,,2013-02-16 13:02:00,
2013-02-16 08:12:00,42.0,37.0,29.93,NNW,345,1.0,3.0,83,0.00,,,0.00,,2013-02-16 13:12:00,
2013-02-16 08:21:00,42.0,37.0,29.93,NNW,345,1.0,3.0,83,0.00,,,0.00,,2013-02-16 13:21:00,
2013-02-16 08:32:00,42.0,37.0,29.93,NNW,347,1.0,3.0,83,0.00,,,0.00,,2013-02-16 13:32:00,
2013-02-16 08:41:00,42.0,37.0,29.93,NNW,347,1.0,3.0,83,0.00,,,0.00,,2013-02-16 13:41:00,
2013-02-16 08:52:00,42.0,37.0,29.93,NNE,25,2.0,3.0,82,0.00,,,0.00,,2013-02-16 13:52:00,
2013-02-16 09:01:00,43.0,37.0,29.93,NNE,32,3.0,7.0,79,0.00,,,0.00,,2013-02-16 14:01:00,
2013-02-16 09:11:00,43.0,37.0,29.93,NNE,32,3.0,7.0,79,0.00,,,0.00,,2013-02-16 14:11:00,
2013-02-16 09:21:00,44.0,38.0,29.93,NNE,20,2.0,5.0,78,0.00,,,0.00,,2013-02-16 14:21:00,
2013-02-16 09:32:00,45.0,37.0,29.93,NNE,23,2.0,9.0,73,0.00,,,0.00,,2013-02-16 14:32:00,
2013-02-16 09:42:00,45.0,37.0,29.93,NNE,23,2.0,9.0,73,0.00,,,0.00,,2013-02-16 14:42:00,
2013-02-16 09:52:00,47.0,37.0,29.92,NNE,25,4.0,9.0,68,0.00,,,0.00,,2013-02-16 14:52:00,
2013-02-16 10:02:00,47.0,38.0,29.94,NNW,346,2.0,6.0,70,0.00,,,0.00,,2013-02-16 15:02:00,
2013-02-16 10:11:00,47.0,38.0,29.94,NNW,346,2.0,6.0,70,0.00,,,0.00,,2013-02-16 15:11:00,
2013-02-16 10:22:00,46.0,37.0,29.95,NNW,346,3.0,9.0,71,0.00,,,0.00,,2013-02-16 15:22:00,
2013-02-16 10:32:00,45.0,38.0,29.95,NW,322,2.0,5.0,77,0.00,,,0.00,,2013-02-16 15:32:00,
2013-02-16 10:42:00,45.0,38.0,29.95,NW,322,2.0,5.0,77,0.00,,,0.00,,2013-02-16 15:42:00,
2013-02-16 10:52:00,44.0,39.0,29.95,NW,323,2.0,5.0,81,0.00,,,0.00,,2013-02-16 15:52:00,
2013-02-16 11:01:00,43.0,39.0,29.96,NNW,332,2.0,4.0,86,0.00,,,0.00,,2013-02-16 16:01:00,
2013-02-16 11:11:00,43.0,39.0,29.96,NNW,332,2.0,4.0,86,0.00,,,0.00,,2013-02-16 16:11:00,
2013-02-16 11:21:00,42.0,38.0,29.96,NNW,335,2.0,5.0,87,0.00,,,0.00,,2013-02-16 16:21:00,
2013-02-16 11:32:00,41.0,38.0,29.96,NW,305,2.0,4.0,90,0.01,,,0.01,,2013-02-16 16:32:00,
2013-02-16 11:42:00,41.0,38.0,29.96,NW,305,2.0,4.0,90,0.01,,,0.01,,2013-02-16 16:42:00,
2013-02-16 11:52:00,40.0,38.0,29.96,NW,321,1.0,4.0,92,0.02,,,0.02,,2013-02-16 16:52:00,
2013-02-16 12:01:00,39.0,37.0,29.97,West,262,1.0,4.0,91,0.03,,,0.03,,2013-02-16 17:01:00,
2013-02-16 12:11:00,39.0,37.0,29.97,West,262,1.0,4.0,91,0.03,,,0.03,,2013-02-16 17:11:00,
2013-02-16 12:22:00,39.0,37.0,29.97,NW,319,2.0,4.0,92,0.04,,,0.04,,2013-02-16 17:22:00,
2013-02-16 12:32:00,38.0,36.0,29.98,WNW,297,1.0,3.0,93,0.04,,,0.05,,2013-02-16 17:32:00,
2013-02-16 12:42:00,38.0,36.0,29.98,WNW,297,1.0,3.0,93,0.04,,,0.05,,2013-02-16 17:42:00,
2013-02-16 12:52:00,38.0,36.0,29.97,NNW,338,1.0,5.0,93,0.04,,,0.06,,2013-02-16 17:52:00,
2013-02-16 13:02:00,38.0,36.0,29.97,NNW,327,0.0,3.0,94,0.04,,,0.07,,2013-02-16 18:02:00,
2013-02-16 13:11:00,38.0,36.0,29.95,NW,307,0.0,2.0,93,0.04,,,0.08,,2013-02-16 18:11:00,
2013-02-16 13:21:00,38.0,36.0,29.95,NW,307,0.0,2.0,93,0.04,,,0.08,,2013-02-16 18:21:00,
2013-02-16 13:33:00,38.0,36.0,29.94,NNW,338,0.0,1.0,94,0.03,,,0.08,,2013-02-16 18:33:00,
2013-02-16 13:42:00,38.0,36.0,29.94,NNW,338,0.0,1.0,94,0.03,,,0.08,,2013-02-16 18:42:00,
2013-02-16 13:52:00,38.0,36.0,29.94,North,4,0.0,1.0,94,0.03,,,0.09,,2013-02-16 18:52:00,
2013-02-16 14:02:00,38.0,36.0,29.94,North,4,0.0,1.0,94,0.03,,,0.09,,2013-02-16 19:02:00,
2013-02-16 14:11:00,38.0,36.0,29.94,North,4,0.0,1.0,94,0.03,,,0.09,,2013-02-16 19:11:00,
2013-02-16 14:22:00,38.0,36.0,29.94,North,4,0.0,1.0,94,0.03,,,0.09,,2013-02-16 19:22:00,
2013-02-16 19:52:00,38.0,34.0,29.96,North,360,2.0,7.0,84,0.00,,,0.09,,2013-02-17 00:52:00,
2013-02-16 20:01:00,37.0,33.0,29.96,NNW,342,2.0,3.0,85,0.00,,,0.09,,2013-02-17 01:01:00,
2013-02-16 20:11:00,37.0,33.0,29.96,NNW,342,2.0,3.0,85,0.00,,,0.09,,2013-02-17 01:11:00,
2013-02-16 20:21:00,36.0,32.0,29.97,WNW,293,0.0,2.0,86,0.00,,,0.09,,2013-02-17 01:21:00,
2013-02-16 20:31:00,36.0,32.0,29.98,WNW,297,1.0,2.0,86,0.00,,,0.09,,2013-02-17 01:31:00,
2013-02-16 20:41:00,36.0,32.0,29.98,WNW,297,1.0,2.0,86,0.00,,,0.09,,2013-02-17 01:41:00,
2013-02-16 20:52:00,35.0,32.0,29.99,West,274,0.0,2.0,88,0.00,,,0.09,,2013-02-17 01:52:00,
2013-02-16 21:01:00,34.0,31.0,30.00,SSE,159,0.0,1.0,89,0.00,,,0.09,,2013-02-17 02:01:00,
2013-02-16 21:11:00,34.0,31.0,30.00,SSE,159,0.0,1.0,89,0.00,,,0.09,,2013-02-17 02:11:00,
2013-02-16 21:21:00,36.0,31.0,30.01,North,11,3.0,9.0,82,0.00,,,0.09,,2013-02-17 02:21:00,
2013-02-16 21:31:00,36.0,31.0,30.02,NW,311,4.0,9.0,83,0.00,,,0.09,,2013-02-17 02:31:00,
2013-02-16 21:41:00,36.0,31.0,30.02,NW,311,4.0,9.0,83,0.00,,,0.09,,2013-02-17 02:41:00,
2013-02-16 21:52:00,35.0,32.0,30.03,NW,319,3.0,8.0,87,0.00,,,0.09,,2013-02-17 02:52:00,
2013-02-16 22:02:00,34.0,31.0,30.04,NW,315,1.0,3.0,89,0.00,,,0.09,,2013-02-17 03:02:00,
2013-02-16 22:11:00,34.0,31.0,30.04,NW,315,1.0,3.0,89,0.00,,,0.09,,2013-02-17 03:11:00,
2013-02-16 22:21:00,33.0,30.0,30.05,NW,307,0.0,1.0,90,0.00,,,0.09,,2013-02-17 03:21:00,
2013-02-16 22:32:00,32.0,29.0,30.05,SSW,195,0.0,1.0,90,0.00,,,0.09,,2013-02-17 03:32:00,
2013-02-16 22:42:00,32.0,29.0,30.05,SSW,195,0.0,1.0,90,0.00,,,0.09,,2013-02-17 03:42:00,
2013-02-16 22:52:00,31.0,29.0,30.05,South,188,1.0,1.0,92,0.00,,,0.09,,2013-02-17 03:52:00,
2013-02-16 23:01:00,31.0,29.0,30.06,South,188,0.0,1.0,92,0.00,,,0.09,,2013-02-17 04:01:00,
2013-02-16 23:11:00,30.0,28.0,30.06,South,188,0.0,1.0,92,0.00,,,0.09,,2013-02-17 04:11:00,
2013-02-16 23:21:00,30.0,28.0,30.06,South,188,0.0,1.0,92,0.00,,,0.09,,2013-02-17 04:21:00,
2013-02-16 23:31:00,30.0,28.0,30.06,SSE,158,0.0,1.0,92,0.00,,,0.09,,2013-02-17 04:31:00,
2013-02-16 23:42:00,30.0,28.0,30.06,SSE,158,0.0,1.0,92,0.00,,,0.09,,2013-02-17 04:42:00,
2013-02-16 23:52:00,30.0,28.0,30.07,SSE,158,0.0,1.0,91,0.00,,,0.09,,2013-02-17 04:52:00,